Overview Statistics Trail Chart Weather Telemetry Raw packets
 

This is the latest recevied weather packets stored in our database for station/object K0QED. If no packets are shown the sender has not sent any weather packets the latest 10 day(s).

<< 19 20 21 22 23 24 25 >>
Time Temp. Humidity Pressure Rain* Wind** Luminosity Snow
1788491738 20.56° C 37% 1023.5 hPa 0 mm - 0 W/m² -
1788491434 20° C 36% 1023.2 hPa 0 mm - 0 W/m² -
1788491130 20° C 36% 1023.1 hPa 0 mm - 0 W/m² -
1788490825 19.44° C 35% 1023.1 hPa 0 mm - 0 W/m² -
1788490520 19.44° C 35% 1023.1 hPa 0 mm - 0 W/m² -
1788490215 19.44° C 36% 1022.7 hPa 0 mm - 0 W/m² -
1788489910 19.44° C 36% 1023 hPa 0 mm - 0 W/m² -
1788489606 19.44° C 36% 1022.7 hPa 0 mm - 0 W/m² -
1788489302 20° C 36% 1022.7 hPa 0 mm - 0 W/m² -
1788488996 20° C 35% 1022.7 hPa 0 mm - 0 W/m² -
1788488692 20.56° C 34% 1022.6 hPa 0 mm - 0 W/m² -
1788488389 20.56° C 34% 1022.6 hPa 0 mm - 0 W/m² -
1788488085 20.56° C 34% 1022.6 hPa 0 mm - 0 W/m² -
1788487784 21.11° C 34% 1022.5 hPa 0 mm - 0 W/m² -
1788487480 21.11° C 34% 1022.2 hPa 0 mm - 0 W/m² -
1788487178 21.11° C 33% 1022.2 hPa 0 mm - 0 W/m² -
1788486874 21.67° C 33% 1022.6 hPa 0 mm - 0 W/m² -
1788486573 21.67° C 33% 1022.2 hPa 0 mm - 0 W/m² -
1788486268 22.22° C 32% 1022.2 hPa 0 mm - 0 W/m² -
1788485964 22.22° C 32% 1022.4 hPa 0 mm - 0 W/m² -
1788485659 22.78° C 31% 1022.1 hPa 0 mm - 0 W/m² -
1788485355 22.78° C 30% 1022.4 hPa 0 mm - 0 W/m² -
1788485055 23.33° C 30% 1022.2 hPa 0 mm - 1 W/m² -
1788484749 23.33° C 30% 1022.1 hPa 0 mm - 3 W/m² -
1788484444 23.89° C 29% 1022.2 hPa 0 mm - 5 W/m² -

* Rain latest hour (hover to see other rain measurements)
** Current wind speed in m/s (hover to see current wind gust speed)